User: anonymous   Login
Location: Unspecified
(0.0000°N, 0.0000°E)
Time: 21:19:01
(UTC+00:00)
Language:

UNISAT 2 - Orbit

View from above orbital plane
View from above orbital plane
View from above satellite
View from above satellite

Ground track
Ground track

The orbit data is extracted from the following two-line orbital elements,

1 27608U 02058D   17141.43612495 +.00000023 +00000-0 +22608-4 0  9993
2 27608 064.5540 134.5026 0014494 080.9379 279.3364 14.77805005776593
Epoch (UTC): 21 May 2017 10:28:01
Eccentricity: 0.0014494
inclination: 64.5540°
perigee height: 626 km
apogee height: 646 km
right ascension of ascending node: 134.5026°
argument of perigee: 80.9379°
revolutions per day: 14.77805005
mean anomaly at epoch: 279.3364°
orbit number at epoch: 77659

The dashed part of the orbit path shows where the satellite is in the earth's shadow,  

DLR